Regional Weather Roundup
Issued by NWS State College, PA

Home | Current Version | Previous Version | Graphics & Text | Print | Product List | Glossary Off
Versions: 1 2 3 4 5 6 7 8 9 10 11 12 13 14 15 16 17 18 19 20 21 22 23 24 25 26 27 28 29 30 31 32 33 34 35 36 37 38 39 40 41 42 43 44 45 46 47 48 49 50

000
ASUS41 KCTP 062003
RWRCTP

REGIONAL WEATHER ROUNDUP
NATIONAL WEATHER SERVICE STATE COLLEGE PA
400 PM EDT WED MAY 06 2015

Note: "fair" indicates few or no clouds below 12,000 feet with no
significant weather and/or obstructions to visibility.

* = STATION THAT DOES NOT REPORT PRECIPITATION /E.G. RAIN...SNOW...ETC/
    THUNDER OR FOG.

PAZ002>004-007>009-013>016-020>023-029>032-062100-
WESTERN PENNSYLVANIA

CITY           SKY/WX    TMP DP  RH WIND       PRES   REMARKS
ERIE           PTSUNNY   66  57  72 N6        30.20F
MEADVILLE      PTSUNNY   72  59  63 NE6       30.19F
FRANKLIN*      PTSUNNY   73  57  56 N8        30.20F
NEW CASTLE     FAIR      82  61  49 VRB3      30.16F
BEAVER COUNTY  MOSUNNY   81  57  44 W6        30.16F
BUTLER*        MOSUNNY   82  57  42 W6        30.17F
PITTSBURGH INT PTSUNNY   83  56  39 NW12      30.14F
PITTSBURGH     CLOUDY    81  51  35 VRB7      30.14F
INDIANA*       CLOUDY    72  59  64 NE10G18   30.20R
LATROBE        MOSUNNY   81  57  44 NW12      30.16F
WASHINGTON CO* MOSUNNY   81  55  41 NW9       30.17F
$$

PAZ004>006-010>012-017>019-024>028-033>037-041-042-045-046-049>053-062100-
CENTRAL PENNSYLVANIA

CITY           SKY/WX    TMP DP  RH WIND       PRES   REMARKS
BRADFORD       CLOUDY    57  54  89 SE5       30.24F
DUBOIS         PTSUNNY   73  59  61 NE8       30.20F
CLEARFIELD     CLOUDY    63  57  81 E10       30.22F
JOHNSTOWN      MOSUNNY   76  52  43 W12       30.17F
ALTOONA        PTSUNNY   73  59  61 N8        30.17F
STATE COLLEGE  CLOUDY    61  57  88 NE14      30.23F
WILLIAMSPORT   CLOUDY    61  52  72 E5        30.25F
SELINSGROVE    PTSUNNY   62  56  80 NE9       30.25F
FT INDIANTOWN  NOT AVBL
CAPITAL CITY   PTSUNNY   72  54  53 E10       30.19F
HARRISBURG     PTSUNNY   73  54  51 E9        30.19F
YORK           SUNNY     76  55  48 E10       30.18F
$$

PAZ038>040-043-044-047-048-054-055-060>062-067>071-062100-
EASTERN PENNSYLVANIA

CITY           SKY/WX    TMP DP  RH WIND       PRES   REMARKS
SCRANTON       CLOUDY    65  48  54 CALM      30.26F
MOUNT POCONO   CLOUDY    59  45  59 CALM      30.27F
ALLENTOWN      CLOUDY    65  50  58 NE5       30.25F
QUAKERTOWN*    MOCLDY    66  45  45 E6        30.25F
READING        CLOUDY    66  48  52 NE7       30.22F
LANCASTER      MOSUNNY   72  54  53 NE9       30.20F
COATESVILLE    PTCLDY    72  48  43 SE5       30.22F
POTTSTOWN      LGT RAIN  68  43  40 E7        30.24F
BLUE BELL      MOSUNNY   72  45  37 CALM      30.22F
DOYLESTOWN     CLOUDY    66  42  41 NE6       30.23F
WILLOW GROVE   NOT AVBL
NORTH PHILA    PTSUNNY   72  44  36 NE7       30.24F
PHILADELPHIA   CLOUDY    75  49  39 E6        30.21F
$$



USA.gov is the U.S. government's official web portal to all federal, state and local government web resources and services.